STARLINK-3746, 52268

Orbit data source: Space-Track

STARLINK-3746, 52268 is a payload satellite owned by SpaceX/Seattle (US) in LEO that was launched on Thu, 21 Apr 2022 UTC via an FALCON 9 launch vehicle from the Air Force Eastern Test Range (AFETR). Payload-class satellites include a variety of spacecraft equipped with specific instruments for various scientific and technological missions. These include communications satellites like Starlink; space stations such as the ISS; scientific satellites like the Hubble; Earth observation satellites from companies like Planet Labs, Umbra, and HawkEye 360; GPS; miniature CubeSats for education and research; and military/defense satellites.

Loading next visibility...
Identifier
52268, 2022-041H
Orbit
LEO
Country
Flag of USUS
Related business
Manufacturer
SpaceX/Seattle
Mission
Operational Commercial Communications
Bus & Motor
STARLINK, Unknown motor
Mass
297 kg wet, ~275 kg dry
Launch date (UTC)
2022-04-21 (4 years ago)
Launch vehicle
FALCON 9
Launch site
Air Force Eastern Test Range (AFETR)
Object type
Payload
Rocket body
Debris
Shape & HBR
Box + 1 Pan, 10.1 m
Radar Cross Section
11.087 m², Large (>1 m²)

Expand to show TLE details & history
Last TLE update: 15 hours ago

TLE from 15 hours ago
0 STARLINK-3746
1 52268U 22041H   26129.88462906 -.00000265  00000-0  14316-5 0  9999
2 52268  53.2163 194.3287 0001145  83.9599 276.1523 15.08842726223605
Epoch: 2026-05-09T21:13Z
TLE epoch observation values (Epoch: 2026-05-09T21:13:51.950Z)
Latitude
-0.00009°
Longitude
8.16652°
Altitude
540.548 km
Speed
7.593 km/s
True Right ascension
12h 57m 18s
True Declination
0° 00' 00"
Sunlit
Object was in full shadow at epoch
Visualization orbit readout
Latitude
Unknown
Longitude
Unknown
Altitude
Unknown
Speed
Unknown
Apparent Right ascension
Unknown
Apparent Declination
Unknown
Sunlit
N/A
Visualization observer readout
Local Sidereal Time
20:35:28
Azimuth
Unknown
Elevation
Unknown
Doppler factor
Unknown
Orbital elements
Apogee altitude
540.772 km
Perigee altitude
539.188 km
Semi-major axis
6,918.117 km
Eccentricity
0.00011
Inclination
53.2163°
RAAN
194.3287°
Arg. of periapsis
83.9599°
True anomaly
276.13925°
Mean anomaly
276.1523°
Eccentric anomaly
276.14578°
Mean motion
3.77191 °/min
Orbital period
95.44 mins
BSTAR
0.0000014316
Loading maneuver chart data...
Computing Atmospheric mass density...
Loading historical data...
Loading historical data...
Loading historical data...
Loading historical data...
Loading historical data...
Loading historical data...
Loading historical data...

Documentation

Showing up to 5 results
|